User: anonymous   Login
Location: Unspecified
(0.0000°N, 0.0000°E)
Time: 11:03:58
(UTC+00:00)
Language:

SR - Orbit

View from above orbital plane
View from above orbital plane
View from above satellite
View from above satellite

Ground track
Ground track

The orbit data is extracted from the following two-line orbital elements,

1    46U 60007B   17149.53722481 +.00000041 +00000-0 +31044-4 0  9998
2    46 066.6890 178.5093 0217783 243.1011 114.7695 14.49034278977558
Epoch (UTC): 29 May 2017 12:53:36
Eccentricity: 0.0217783
inclination: 66.6890°
perigee height: 574 km
apogee height: 883 km
right ascension of ascending node: 178.5093°
argument of perigee: 243.1011°
revolutions per day: 14.49034278
mean anomaly at epoch: 114.7695°
orbit number at epoch: 97755

The dashed part of the orbit path shows where the satellite is in the earth's shadow,  

DLR